Charles City, IA

2:33 AM CST on November 23, 2017 (GMT -0600)
Charles City Municipal

Weather History for KCCY - June, 2012

Change the Weather History Date:

Thursday, June 7, 2012

  Actual Average Record
Temperature  
Mean Temperature 70 °F -  
Max Temperature 82 °F 80 °F 98 °F (2011)
Min Temperature 57 °F 56 °F 43 °F (1960)
Cooling Degree Days 4    
Growing Degree Days 20 (Base 50)    
Moisture  
Dew Point 53 °F    
Average Humidity 56    
Maximum Humidity 82    
Minimum Humidity 30    
Precipitation  
Precipitation 0.00 in - - ()
Sea Level Pressure  
Sea Level Pressure 30.11 in    
Wind  
Wind Speed 6 mph (SSW)    
Max Wind Speed 10 mph    
Max Gust Speed -    
Visibility 10 miles    
Events      
Averages and records for this station are not official NWS values.
T = Trace of Precipitation, MM = Missing Value Source: NWS Daily Summary

Daily Weather History Graph

Daily Weather History Graph

Search for Another Location

Airport or City:

Trip Planner

Search our weather history database for the weather conditions in past years. The results will help you decide how hot, cold, wet, or windy it might be!

Date:

Astronomy

Jun. 07, 2012 Rise Set
Actual Time 5:31 AM CDT 8:47 PM CDT
Civil Twilight 4:56 AM CDT 9:22 PM CDT
Nautical Twilight 4:11 AM CDT 10:08 PM CDT
Astronomical Twilight 3:15 AM CDT 11:03 PM CDT
Moon 11:34 PM CDT (6/7) 9:06 AM CDT (6/7)
Length of Visible Light 16h 26m
Length of Day
15h 16m
Waning Gibbous, 86% of the Moon is Illuminated
Jun 7
Waning Gibbous
Jun 11
Last Quarter
Jun 19
New
Jun 26
First Quarter
Jul 3
Full

Hourly Weather History & Observations

Time (CDT) Temp. Heat Index Dew Point Humidity Pressure Visibility Wind Dir Wind Speed Gust Speed Precip Events Conditions
12:15 AM 62.6 °F - 51.8 °F 68% 30.10 in 10.0 mi SE 5.8 mph - N/A   Clear
12:35 AM 62.6 °F - 51.8 °F 68% 30.11 in 10.0 mi SE 5.8 mph - N/A   Clear
12:55 AM 62.6 °F - 51.8 °F 68% 30.11 in 10.0 mi SE 5.8 mph - N/A   Clear
1:15 AM 62.6 °F - 50.0 °F 63% 30.11 in 10.0 mi SSE 8.1 mph - N/A   Clear
1:35 AM 62.6 °F - 51.8 °F 68% 30.12 in 10.0 mi SSE 6.9 mph - N/A   Clear
1:55 AM 62.6 °F - 51.8 °F 68% 30.12 in 10.0 mi SSE 6.9 mph - N/A   Clear
2:15 AM 60.8 °F - 51.8 °F 72% 30.12 in 10.0 mi SE 6.9 mph - N/A   Clear
2:35 AM 60.8 °F - 51.8 °F 72% 30.11 in 10.0 mi SE 8.1 mph - N/A   Clear
2:55 AM 60.8 °F - 51.8 °F 72% 30.12 in 10.0 mi SE 5.8 mph - N/A   Clear
3:15 AM 62.6 °F - 50.0 °F 63% 30.11 in 10.0 mi SSE 6.9 mph - N/A   Clear
3:35 AM 60.8 °F - 51.8 °F 72% 30.11 in 10.0 mi SSE 5.8 mph - N/A   Clear
3:55 AM 60.8 °F - 51.8 °F 72% 30.11 in 10.0 mi South 3.5 mph - N/A   Clear
4:15 AM 59.0 °F - 51.8 °F 77% 30.12 in 10.0 mi South 3.5 mph - N/A   Clear
4:35 AM 59.0 °F - 51.8 °F 77% 30.11 in 10.0 mi South 4.6 mph - N/A   Clear
4:55 AM 57.2 °F - 51.8 °F 82% 30.12 in 10.0 mi SSE 3.5 mph - N/A   Clear
5:15 AM 59.0 °F - 51.8 °F 77% 30.12 in 10.0 mi SE 5.8 mph - N/A   Clear
5:35 AM 59.0 °F - 51.8 °F 77% 30.13 in 10.0 mi SSE 3.5 mph - N/A   Clear
5:55 AM 59.0 °F - 51.8 °F 77% 30.13 in 10.0 mi South 3.5 mph - N/A   Clear
6:15 AM 60.8 °F - 51.8 °F 72% 30.14 in 10.0 mi Calm Calm - N/A   Clear
6:35 AM 60.8 °F - 53.6 °F 77% 30.14 in 10.0 mi ESE 3.5 mph - N/A   Clear
6:55 AM 60.8 °F - 53.6 °F 77% 30.15 in 10.0 mi SSE 4.6 mph - N/A   Scattered Clouds
7:15 AM 62.6 °F - 51.8 °F 68% 30.15 in 10.0 mi SSE 5.8 mph - N/A   Scattered Clouds
7:35 AM 62.6 °F - 51.8 °F 68% 30.15 in 10.0 mi SSE 5.8 mph - N/A   Clear
7:55 AM 64.4 °F - 53.6 °F 68% 30.15 in 10.0 mi South 4.6 mph - N/A   Clear
8:15 AM 64.4 °F - 53.6 °F 68% 30.16 in 10.0 mi SSW 5.8 mph - N/A   Scattered Clouds
8:35 AM 64.4 °F - 55.4 °F 73% 30.16 in 10.0 mi SSW 4.6 mph - N/A   Clear
8:55 AM 66.2 °F - 55.4 °F 68% 30.16 in 10.0 mi SSW 3.5 mph - N/A   Clear
9:35 AM 71.6 °F - 55.4 °F 57% 30.16 in 10.0 mi SSW 6.9 mph - N/A   Clear
9:55 AM 73.4 °F - 57.2 °F 57% 30.16 in 10.0 mi SW 5.8 mph - N/A   Clear
10:15 AM 73.4 °F - 57.2 °F 57% 30.16 in 10.0 mi WSW 10.4 mph - N/A   Clear
10:35 AM 73.4 °F - 57.2 °F 57% 30.16 in 10.0 mi SW 8.1 mph - N/A   Clear
10:55 AM 75.2 °F - 55.4 °F 50% 30.16 in 10.0 mi WSW 10.4 mph - N/A   Clear
11:15 AM 75.2 °F - 55.4 °F 50% 30.16 in 10.0 mi WSW 9.2 mph - N/A   Clear
11:35 AM 75.2 °F - 53.6 °F 47% 30.16 in 10.0 mi WSW 9.2 mph - N/A   Clear
11:55 AM 75.2 °F - 53.6 °F 47% 30.16 in 10.0 mi WSW 8.1 mph - N/A   Clear
12:15 PM 77.0 °F - 55.4 °F 47% 30.15 in 10.0 mi WSW 9.2 mph - N/A   Clear
12:35 PM 77.0 °F - 53.6 °F 44% 30.15 in 10.0 mi WSW 10.4 mph - N/A   Clear
12:55 PM 77.0 °F - 51.8 °F 41% 30.15 in 10.0 mi SW 10.4 mph - N/A   Clear
1:15 PM 77.0 °F - 53.6 °F 44% 30.14 in 10.0 mi SW 9.2 mph - N/A   Clear
1:35 PM 78.8 °F - 51.8 °F 39% 30.14 in 10.0 mi SW 8.1 mph - N/A   Clear
1:55 PM 77.0 °F - 51.8 °F 41% 30.13 in 10.0 mi SSW 6.9 mph - N/A   Clear
2:15 PM 78.8 °F - 53.6 °F 42% 30.12 in 10.0 mi SW 9.2 mph - N/A   Clear
2:35 PM 80.6 °F - 51.8 °F 37% 30.12 in 10.0 mi Calm Calm - N/A   Clear
2:55 PM 80.6 °F - 51.8 °F 37% 30.11 in 10.0 mi SW 5.8 mph - N/A   Clear
3:15 PM 78.8 °F - 51.8 °F 39% 30.11 in 10.0 mi South 4.6 mph - N/A   Clear
3:35 PM 80.6 °F - 51.8 °F 37% 30.10 in 10.0 mi SSW 5.8 mph - N/A   Clear
3:55 PM 80.6 °F - 50.0 °F 34% 30.09 in 10.0 mi South 9.2 mph - N/A   Clear
4:15 PM 82.4 °F - 48.2 °F 30% 30.08 in 10.0 mi SSE 6.9 mph - N/A   Clear
4:35 PM 82.4 °F - 51.8 °F 35% 30.08 in 10.0 mi SSW 8.1 mph - N/A   Clear
4:55 PM 80.6 °F - 51.8 °F 37% 30.08 in 10.0 mi South 6.9 mph - N/A   Clear
5:15 PM 80.6 °F - 48.2 °F 32% 30.08 in 10.0 mi South 5.8 mph - N/A   Clear
5:35 PM 80.6 °F - 51.8 °F 37% 30.08 in 10.0 mi SSW 9.2 mph - N/A   Scattered Clouds
5:55 PM 80.6 °F - 51.8 °F 37% 30.07 in 10.0 mi South 5.8 mph - N/A   Scattered Clouds
6:15 PM 80.6 °F - 50.0 °F 34% 30.07 in 10.0 mi South 9.2 mph - N/A   Clear
6:35 PM 80.6 °F 80.5 °F 55.4 °F 42% 30.06 in 10.0 mi SSW 5.8 mph - N/A   Clear
6:55 PM 78.8 °F - 51.8 °F 39% 30.06 in 10.0 mi SSW 6.9 mph - N/A   Clear
7:15 PM 78.8 °F - 53.6 °F 42% 30.06 in 10.0 mi SSW 5.8 mph - N/A   Clear
7:35 PM 78.8 °F - 53.6 °F 42% 30.06 in 10.0 mi SSW 5.8 mph - N/A   Clear
7:55 PM 77.0 °F - 53.6 °F 44% 30.06 in 10.0 mi SSW 8.1 mph - N/A   Clear
8:15 PM 73.4 °F - 53.6 °F 50% 30.06 in 10.0 mi SW 5.8 mph - N/A   Clear
8:35 PM 73.4 °F - 53.6 °F 50% 30.06 in 10.0 mi SSW 4.6 mph - N/A   Clear
8:55 PM 73.4 °F - 53.6 °F 50% 30.06 in 10.0 mi SW 3.5 mph - N/A   Clear
9:15 PM 71.6 °F - 53.6 °F 53% 30.06 in 10.0 mi SW 3.5 mph - N/A   Clear
9:35 PM 69.8 °F - 53.6 °F 56% 30.06 in 10.0 mi SSW 3.5 mph - N/A   Clear
9:55 PM 69.8 °F - 53.6 °F 56% 30.07 in 10.0 mi SW 3.5 mph - N/A   Clear
10:15 PM 69.8 °F - 53.6 °F 56% 30.07 in 10.0 mi SW 4.6 mph - N/A   Clear
10:35 PM 68.0 °F - 55.4 °F 64% 30.07 in 10.0 mi SW 4.6 mph - N/A   Clear
10:55 PM 68.0 °F - 55.4 °F 64% 30.07 in 10.0 mi SW 4.6 mph - N/A   Clear
11:35 PM 68.0 °F - 53.6 °F 60% 30.07 in 10.0 mi SSW 4.6 mph - N/A   Clear
11:55 PM 64.4 °F - 55.4 °F 73% 30.07 in 10.0 mi South 5.8 mph - N/A   Clear